LANDSAT 7

Last updated on July 6, 2021, 3:23 p.m. UTC

1 25682U 99020A   21187.18788070  .00000026  00000-0  15478-4 0  9998
2 25682  98.0294 243.3879 0001850  90.4637 269.6786 14.57201676182123
UTC
Height (km)
Latitude
Longitude
Inclination
Orbital Period
UTC large
Height (km)
Speed (km/s)
/
Latitude / Longitude
Inclination (degrees)
Orbital Period (minutes)
Azimuth
Elevation
Range (km)
Doppler Factor
iOS Compass Heading
iOS Angle